06/09/2011,00:00:07,   0.0,  6.8,  215,+14.6,  94.2,    0.1,  +14.7,  +15.1,  +14.8,+1100.00,38
06/09/2011,00:00:33,   0.0,  5.1,  223,+14.6,  94.2,    0.2,  +14.7,  +15.1,  +14.8,+1100.00,2F
06/09/2011,00:00:51,   0.0,  4.4,  226,+14.6,  94.2,    0.2,  +14.6,  +15.2,  +14.8,+1100.00,34
06/09/2011,00:01:09,   0.0,  6.3,  210,+14.7,  94.2,    0.3,  +14.7,  +15.1,  +14.8,+1100.00,34
06/09/2011,00:01:34,   0.0,  6.6,  219,+14.6,  94.2,    0.1,  +14.6,  +15.1,  +14.8,+1100.00,3A
06/09/2011,00:01:52,   0.0,  5.9,  249,+14.7,  94.2,    0.2,  +14.6,  +15.1,  +14.8,+1100.00,41
06/09/2011,00:02:10,   0.0,  5.7,  243,+14.6,  94.2,    0.4,  +14.6,  +15.2,  +14.7,+1100.00,35
06/09/2011,00:02:28,   0.0,  7.1,  208,+14.6,  94.2,    0.1,  +14.6,  +15.2,  +14.7,+1100.00,38
06/09/2011,00:02:54,   0.0,  6.4,  215,+14.6,  94.2,    0.5,  +14.6,  +15.2,  +14.7,+1100.00,3B
06/09/2011,00:03:12,   0.0,  8.2,  197,+14.6,  94.2,    0.3,  +14.6,  +15.2,  +14.8,+1100.00,3E
06/09/2011,00:03:30,   0.0,  4.9,  209,+14.6,  94.2,    0.1,  +14.6,  +15.1,  +14.7,+1100.00,37
06/09/2011,00:03:48,   0.0,  6.4,  243,+14.6,  94.2,    0.2,  +14.6,  +15.2,  +14.7,+1100.00,3D
06/09/2011,00:04:13,   0.0,  4.9,  197,+14.6,  94.2,    0.5,  +14.7,  +15.1,  +14.8,+1100.00,45
06/09/2011,00:04:31,   0.0,  3.7,  204,+14.6,  94.3,    0.2,  +14.6,  +15.2,  +14.7,+1100.00,34
06/09/2011,00:04:49,   0.0,  3.9,  219,+14.7,  94.3,    0.4,  +14.6,  +15.2,  +14.7,+1100.00,48
06/09/2011,00:05:07,   0.0,  4.0,  223,+14.7,  94.3,    0.1,  +14.5,  +15.2,  +14.7,+1100.00,32
06/09/2011,00:05:33,   0.0,  6.1,  206,+14.6,  94.3,    0.1,  +14.5,  +15.2,  +14.7,+1100.00,34
06/09/2011,00:05:51,   0.0,  7.6,  223,+14.6,  94.3,    0.2,  +14.5,  +15.2,  +14.7,+1100.00,3A
06/09/2011,00:06:09,   0.0,  4.7,  210,+14.6,  94.2,    0.2,  +14.5,  +15.2,  +14.7,+1100.00,37
06/09/2011,00:06:34,   0.0,  5.7,  220,+14.6,  94.3,    0.2,  +14.6,  +15.2,  +14.7,+1100.00,39
06/09/2011,00:06:52,   0.0,  6.0,  226,+14.6,  94.3,    0.2,  +14.5,  +15.2,  +14.7,+1100.00,38
06/09/2011,00:07:10,   0.0,  3.9,  216,+14.6,  94.3,    0.3,  +14.5,  +15.3,  +14.7,+1100.00,3A
06/09/2011,00:07:28,   0.0,  6.8,  191,+14.6,  94.3,    0.1,  +14.5,  +15.2,  +14.7,+1100.00,44
06/09/2011,00:07:54,   0.0,  7.6,  232,+14.6,  94.3,    0.1,  +14.6,  +15.2,  +14.7,+1100.00,3F
06/09/2011,00:08:12,   0.0,  7.3,  231,+14.6,  94.3,    0.2,  +14.6,  +15.1,  +14.8,+1100.00,37
06/09/2011,00:08:30,   0.0,  3.9,  228,+14.7,  94.3,    0.2,  +14.5,  +15.2,  +14.7,+1100.00,3F
06/09/2011,00:08:47,   0.0,  4.2,  208,+14.6,  94.3,    0.2,  +14.7,  +15.1,  +14.8,+1100.00,40
06/09/2011,00:09:13,   0.0,  2.5,  249,+14.6,  94.3,    0.1,  +14.5,  +15.2,  +14.7,+1100.00,3D
06/09/2011,00:09:31,   0.0,  3.8,  225,+14.6,  94.4,    0.2,  +14.6,  +15.2,  +14.8,+1100.00,3F
06/09/2011,00:09:49,   0.0,  4.4,  238,+14.6,  94.4,    0.3,  +14.6,  +15.3,  +14.8,+1100.00,4B
06/09/2011,00:10:07,   0.0,  2.7,  212,+14.6,  94.4,    0.3,  +14.6,  +15.2,  +14.8,+1100.00,35
06/09/2011,00:10:33,   0.0,  6.5,  233,+14.6,  94.4,    0.2,  +14.6,  +15.2,  +14.8,+1100.00,38
06/09/2011,00:10:51,   0.0,  5.9,  219,+14.6,  94.4,    0.3,  +14.6,  +15.3,  +14.7,+1100.00,40
06/09/2011,00:11:09,   0.0,  3.8,  180,+14.6,  94.4,    0.2,  +14.5,  +15.2,  +14.7,+1100.00,3B
06/09/2011,00:11:27,   0.0,  5.0,  246,+14.6,  94.4,    0.1,  +14.6,  +15.2,  +14.8,+1100.00,39
06/09/2011,00:11:53,   0.0,  5.6,  189,+14.6,  94.4,    0.1,  +14.7,  +15.1,  +14.8,+1100.00,44
06/09/2011,00:12:11,   0.0,  5.9,  174,+14.6,  94.4,    0.3,  +14.5,  +15.3,  +14.7,+1100.00,3D
06/09/2011,00:12:29,   0.0,  6.5,  185,+14.6,  94.4,    0.1,  +14.5,  +15.2,  +14.7,+1100.00,42
06/09/2011,00:12:47,   0.0,  4.9,  218,+14.6,  94.4,    0.1,  +14.6,  +15.2,  +14.7,+1100.00,42
06/09/2011,00:13:13,   0.0,  5.2,  208,+14.6,  94.4,    0.2,  +14.7,  +15.1,  +14.8,+1100.00,37
06/09/2011,00:13:31,   0.0,  5.8,  233,+14.6,  94.4,    0.3,  +14.7,  +15.2,  +14.7,+1100.00,3C
06/09/2011,00:13:49,   0.0,  5.4,  234,+14.6,  94.4,    0.2,  +14.6,  +15.2,  +14.7,+1100.00,40
06/09/2011,00:14:07,   0.0,  7.2,  225,+14.6,  94.4,    0.1,  +14.6,  +15.1,  +14.8,+1100.00,3A
06/09/2011,00:14:33,   0.0,  5.3,  215,+14.6,  94.4,    0.2,  +14.6,  +15.2,  +14.7,+1100.00,38
06/09/2011,00:14:51,   0.0,  2.1,  216,+14.6,  94.4,    0.2,  +14.5,  +15.2,  +14.7,+1100.00,33
06/09/2011,00:15:09,   0.0,  6.1,  192,+14.6,  94.4,    0.2,  +14.5,  +15.2,  +14.7,+1100.00,3E
06/09/2011,00:15:34,   0.0,  6.0,  247,+14.6,  94.4,    0.3,  +14.7,  +15.1,  +14.8,+1100.00,3F
06/09/2011,00:15:52,   0.0,  0.8,  245,+14.6,  94.4,    0.2,  +14.6,  +15.2,  +14.8,+1100.00,3E
06/09/2011,00:16:10,   0.0,  2.8,  196,+14.7,  94.5,    0.4,  +14.5,  +15.2,  +14.7,+1100.00,42
06/09/2011,00:16:28,   0.0,  2.7,  214,+14.6,  94.5,    0.1,  +14.5,  +15.2,  +14.7,+1100.00,3D
06/09/2011,00:16:54,   0.0,  4.3,  218,+14.6,  94.5,    0.1,  +14.5,  +15.2,  +14.7,+1100.00,3E
06/09/2011,00:17:12,   0.0,  5.3,  195,+14.6,  94.5,    0.2,  +14.6,  +15.2,  +14.8,+1100.00,41
06/09/2011,00:17:30,   0.0,  4.2,  186,+14.6,  94.5,    0.3,  +14.6,  +15.2,  +14.7,+1100.00,3F
06/09/2011,00:17:48,   0.0,  5.9,  210,+14.6,  94.5,    0.2,  +14.6,  +15.2,  +14.8,+1100.00,44
06/09/2011,00:18:13,   0.0,  3.1,  224,+14.6,  94.5,    0.1,  +14.5,  +15.2,  +14.7,+1100.00,35
06/09/2011,00:18:31,   0.0,  2.6,  237,+14.6,  94.5,    0.1,  +14.7,  +15.1,  +14.8,+1100.00,3F
06/09/2011,00:18:49,   0.0,  2.3,  190,+14.7,  94.5,    0.3,  +14.6,  +15.3,  +14.7,+1100.00,46
06/09/2011,00:19:07,   0.0,  5.5,  229,+14.6,  94.5,    0.2,  +14.6,  +15.2,  +14.8,+1100.00,47
06/09/2011,00:19:33,   0.0,  9.3,  245,+14.6,  94.5,    0.1,  +14.6,  +15.1,  +14.8,+1100.00,44
06/09/2011,00:19:51,   0.0,  7.3,  214,+14.6,  94.5,    0.3,  +14.7,  +15.1,  +14.8,+1100.00,41
06/09/2011,00:20:09,   0.0,  7.8,  219,+14.6,  94.5,    0.4,  +14.6,  +15.2,  +14.8,+1100.00,47
06/09/2011,00:20:34,   0.0,  5.1,  203,+14.6,  94.5,    0.2,  +14.6,  +15.2,  +14.7,+1100.00,32
06/09/2011,00:20:52,   0.0,  4.1,  232,+14.6,  94.5,    0.3,  +14.6,  +15.2,  +14.8,+1100.00,35
06/09/2011,00:21:10,   0.0,  7.9,  224,+14.6,  94.6,    0.5,  +14.6,  +15.2,  +14.7,+1100.00,3E
06/09/2011,00:21:28,   0.0,  9.5,  216,+14.6,  94.5,    0.2,  +14.5,  +15.3,  +14.7,+1100.00,42
06/09/2011,00:21:54,   0.0,  6.3,  223,+14.6,  94.5,    0.1,  +14.5,  +15.2,  +14.7,+1100.00,38
06/09/2011,00:22:12,   0.0,  4.5,  238,+14.6,  94.5,    0.2,  +14.5,  +15.2,  +14.7,+1100.00,3A
06/09/2011,00:22:30,   0.0,  5.0,  223,+14.6,  94.5,    0.3,  +14.6,  +15.1,  +14.8,+1100.00,32
06/09/2011,00:22:48,   0.0,  4.7,  221,+14.6,  94.5,    0.2,  +14.6,  +15.2,  +14.8,+1100.00,3F
06/09/2011,00:23:13,   0.0,  8.7,  205,+14.6,  94.5,    0.1,  +14.5,  +15.2,  +14.7,+1100.00,3B
06/09/2011,00:23:31,   0.0,  7.0,  228,+14.6,  94.5,    0.2,  +14.5,  +15.2,  +14.8,+1100.00,3A
06/09/2011,00:23:49,   0.0,  6.7,  253,+14.6,  94.4,    0.3,  +14.6,  +15.2,  +14.7,+1100.00,47
06/09/2011,00:24:07,   0.0,  3.3,  196,+14.6,  94.5,    0.1,  +14.5,  +15.2,  +14.7,+1100.00,3F
06/09/2011,00:24:33,   0.0,  3.9,  189,+14.6,  94.5,    0.2,  +14.7,  +15.1,  +14.8,+1100.00,49
06/09/2011,00:24:51,   0.0,  3.1,  214,+14.6,  94.5,    0.3,  +14.7,  +15.1,  +14.8,+1100.00,37
06/09/2011,00:25:09,   0.0,  2.5,  241,+14.6,  94.5,    0.2,  +14.5,  +15.2,  +14.7,+1100.00,3B
06/09/2011,00:25:34,   0.0,  8.0,  191,+14.6,  94.5,    0.1,  +14.7,  +15.1,  +14.8,+1100.00,3F
06/09/2011,00:25:52,   0.0,  5.5,  190,+14.6,  94.5,    0.1,  +14.6,  +15.2,  +14.8,+1100.00,40
06/09/2011,00:26:10,   0.0,  4.2,  192,+14.7,  94.5,    0.3,  +14.6,  +15.2,  +14.7,+1100.00,3B
06/09/2011,00:26:28,   0.0,  5.2,  248,+14.6,  94.5,    0.1,  +14.6,  +15.2,  +14.8,+1100.00,45
06/09/2011,00:26:54,   0.0,  4.9,  209,+14.6,  94.5,    0.5,  +14.6,  +15.1,  +14.8,+1100.00,4A
06/09/2011,00:27:12,   0.0,  3.1,  211,+14.6,  94.5,    0.1,  +14.6,  +15.2,  +14.8,+1100.00,32
06/09/2011,00:27:30,   0.0,  3.3,  220,+14.6,  94.5,    0.2,  +14.6,  +15.2,  +14.7,+1100.00,34
06/09/2011,00:27:48,   0.0,  5.4,  214,+14.6,  94.6,    0.2,  +14.6,  +15.2,  +14.8,+1100.00,45
06/09/2011,00:28:13,   0.0,  7.7,  236,+14.6,  94.5,    0.2,  +14.6,  +15.1,  +14.8,+1100.00,45
06/09/2011,00:28:31,   0.0,  5.7,  202,+14.6,  94.5,    0.3,  +14.6,  +15.2,  +14.8,+1100.00,3E
06/09/2011,00:28:49,   0.0,  3.7,  210,+14.6,  94.5,    0.1,  +14.5,  +15.3,  +14.7,+1100.00,41
06/09/2011,00:29:07,   0.0,  4.5,  227,+14.6,  94.5,    0.2,  +14.6,  +15.2,  +14.8,+1100.00,45
06/09/2011,00:29:33,   0.0,  3.8,  217,+14.6,  94.5,    0.2,  +14.7,  +15.1,  +14.8,+1100.00,45
06/09/2011,00:29:51,   0.0,  3.0,  253,+14.6,  94.6,    0.3,  +14.6,  +15.2,  +14.8,+1100.00,3F
06/09/2011,00:30:09,   0.0,  4.4,  214,+14.6,  94.6,    0.3,  +14.6,  +15.2,  +14.8,+1100.00,3C
06/09/2011,00:30:34,   0.0,  6.9,  234,+14.6,  94.5,    0.1,  +14.5,  +15.2,  +14.7,+1100.00,3E
06/09/2011,00:30:52,   0.0,  6.0,  241,+14.6,  94.5,    0.2,  +14.6,  +15.2,  +14.8,+1100.00,36
06/09/2011,00:31:10,   0.0,  5.3,  231,+14.6,  94.6,    0.3,  +14.7,  +15.2,  +14.8,+1100.00,35
06/09/2011,00:31:28,   0.0,  4.3,  209,+14.6,  94.6,    0.2,  +14.6,  +15.1,  +14.8,+1100.00,3F
06/09/2011,00:31:54,   0.0,  5.8,  215,+14.6,  94.6,    0.2,  +14.7,  +15.1,  +14.8,+1100.00,42
06/09/2011,00:32:12,   0.0,  4.7,  202,+14.6,  94.6,    0.1,  +14.6,  +15.2,  +14.7,+1100.00,35
06/09/2011,00:32:30,   0.0,  4.3,  216,+14.6,  94.6,    0.2,  +14.6,  +15.2,  +14.8,+1100.00,38
06/09/2011,00:32:48,   0.0,  5.4,  224,+14.6,  94.6,    0.2,  +14.6,  +15.2,  +14.7,+1100.00,41
06/09/2011,00:33:13,   0.0,  4.0,  220,+14.6,  94.6,    0.1,  +14.6,  +15.1,  +14.8,+1100.00,30
06/09/2011,00:33:31,   0.0,  5.7,  200,+14.6,  94.6,    0.3,  +14.5,  +15.2,  +14.7,+1100.00,37
06/09/2011,00:33:49,   0.0,  4.5,  205,+14.7,  94.6,    0.3,  +14.6,  +15.2,  +14.7,+1100.00,44
06/09/2011,00:34:07,   0.0,  6.8,  232,+14.6,  94.6,    0.1,  +14.7,  +15.2,  +14.8,+1100.00,43
06/09/2011,00:34:33,   0.0,  4.3,  196,+14.6,  94.6,    0.2,  +14.6,  +15.2,  +14.7,+1100.00,43
06/09/2011,00:34:51,   0.0,  8.0,  236,+14.6,  94.7,    0.3,  +14.7,  +15.2,  +14.7,+1100.00,42
06/09/2011,00:35:09,   0.0,  5.9,  198,+14.6,  94.6,    0.2,  +14.7,  +15.1,  +14.8,+1100.00,51
06/09/2011,00:35:27,   0.0,  6.2,  232,+14.6,  94.6,    0.1,  +14.6,  +15.2,  +14.8,+1100.00,3F
06/09/2011,00:35:53,   0.0,  5.2,  225,+14.6,  94.6,    0.2,  +14.6,  +15.2,  +14.7,+1100.00,3F
06/09/2011,00:36:11,   0.0,  6.5,  223,+14.6,  94.6,    0.2,  +14.5,  +15.2,  +14.7,+1100.00,3B
06/09/2011,00:36:29,   0.0,  3.6,  195,+14.6,  94.6,    0.2,  +14.5,  +15.2,  +14.7,+1100.00,4A
06/09/2011,00:36:54,   0.0,  5.6,  225,+14.6,  94.6,    0.1,  +14.6,  +15.1,  +14.7,+1100.00,43
06/09/2011,00:37:12,   0.0,  5.2,  210,+14.6,  94.5,    0.1,  +14.5,  +15.3,  +14.7,+1100.00,34
06/09/2011,00:37:30,   0.0,  4.9,  220,+14.6,  94.5,    0.3,  +14.6,  +15.2,  +14.7,+1100.00,3D
06/09/2011,00:37:48,   0.0,  5.4,  213,+14.6,  94.6,    0.1,  +14.5,  +15.2,  +14.7,+1100.00,42
06/09/2011,00:38:14,   0.0,  5.5,  215,+14.7,  94.6,    0.2,  +14.5,  +15.2,  +14.7,+1100.00,41
06/09/2011,00:38:32,   0.0,  3.3,  235,+14.6,  94.6,    0.1,  +14.6,  +15.2,  +14.7,+1100.00,3E
06/09/2011,00:38:50,   0.0,  5.5,  216,+14.6,  94.6,    0.3,  +14.7,  +15.1,  +14.8,+1100.00,44
06/09/2011,00:39:07,   0.0,  3.2,  277,+14.6,  94.6,    0.2,  +14.7,  +15.1,  +14.8,+1100.00,48
06/09/2011,00:39:33,   0.0,  6.6,  227,+14.6,  94.6,    0.3,  +14.5,  +15.2,  +14.7,+1100.00,48
06/09/2011,00:39:51,   0.0,  6.7,  241,+14.6,  94.6,    0.2,  +14.5,  +15.3,  +14.7,+1100.00,45
06/09/2011,00:40:09,   0.0,  4.7,  217,+14.6,  94.5,    0.3,  +14.7,  +15.2,  +14.7,+1100.00,42
06/09/2011,00:40:27,   0.0,  5.8,  248,+14.6,  94.5,    0.1,  +14.6,  +15.2,  +14.8,+1100.00,46
06/09/2011,00:40:53,   0.0,  5.3,  244,+14.6,  94.5,    0.4,  +14.6,  +15.1,  +14.7,+1100.00,3D
06/09/2011,00:41:11,   0.0,  5.2,  246,+14.6,  94.5,    0.3,  +14.6,  +15.3,  +14.7,+1100.00,3A
06/09/2011,00:41:29,   0.0,  3.8,  220,+14.6,  94.5,    0.1,  +14.6,  +15.2,  +14.7,+1100.00,3C
06/09/2011,00:41:47,   0.0,  4.7,  234,+14.6,  94.5,    0.1,  +14.6,  +15.2,  +14.7,+1100.00,41
06/09/2011,00:42:13,   0.0,  7.0,  208,+14.6,  94.4,    0.1,  +14.6,  +15.2,  +14.7,+1100.00,37
06/09/2011,00:42:31,   0.0,  4.5,  239,+14.6,  94.5,    0.4,  +14.6,  +15.2,  +14.7,+1100.00,41
06/09/2011,00:42:49,   0.0,  5.3,  222,+14.7,  94.5,    0.5,  +14.7,  +15.1,  +14.8,+1100.00,44
06/09/2011,00:43:07,   0.0,  4.2,  202,+14.6,  94.4,    0.2,  +14.6,  +15.2,  +14.7,+1100.00,35
06/09/2011,00:43:33,   0.0,  4.7,  220,+14.7,  94.4,    0.1,  +14.6,  +15.2,  +14.7,+1100.00,39
06/09/2011,00:43:51,   0.0,  3.5,  219,+14.6,  94.4,    0.2,  +14.6,  +15.1,  +14.7,+1100.00,3D
06/09/2011,00:44:09,   0.0,  3.2,  208,+14.6,  94.4,    0.2,  +14.5,  +15.2,  +14.7,+1100.00,3C
06/09/2011,00:44:34,   0.0,  7.5,  221,+14.6,  94.4,    0.1,  +14.6,  +15.2,  +14.7,+1100.00,3C
06/09/2011,00:44:52,   0.0,  7.6,  195,+14.6,  94.4,    0.1,  +14.7,  +15.1,  +14.7,+1100.00,47
06/09/2011,00:45:10,   0.0,  5.7,  220,+14.7,  94.4,    0.3,  +14.7,  +15.1,  +14.7,+1100.00,39
06/09/2011,00:45:28,   0.0,  6.1,  224,+14.7,  94.3,    0.3,  +14.6,  +15.2,  +14.7,+1100.00,40
06/09/2011,00:45:54,   0.0,  7.2,  233,+14.6,  94.3,    0.1,  +14.6,  +15.2,  +14.7,+1100.00,3E
06/09/2011,00:46:12,   0.0,  7.5,  232,+14.6,  94.3,    0.1,  +14.7,  +15.1,  +14.7,+1100.00,3B
06/09/2011,00:46:30,   0.0,  6.7,  222,+14.7,  94.3,    0.1,  +14.7,  +15.1,  +14.7,+1100.00,3C
06/09/2011,00:46:48,   0.0,  4.2,  254,+14.7,  94.3,    0.2,  +14.5,  +15.2,  +14.7,+1100.00,43
06/09/2011,00:47:13,   0.0,  4.6,  253,+14.6,  94.3,    0.1,  +14.6,  +15.2,  +14.7,+1100.00,3E
06/09/2011,00:47:31,   0.0,  3.5,  215,+14.7,  94.3,    0.3,  +14.7,  +15.2,  +14.7,+1100.00,3E
06/09/2011,00:47:49,   0.0,  3.7,  213,+14.7,  94.3,    0.3,  +14.6,  +15.2,  +14.6,+1100.00,45
06/09/2011,00:48:07,   0.0,  6.7,  239,+14.7,  94.3,    0.3,  +14.6,  +15.2,  +14.7,+1100.00,4C
06/09/2011,00:48:33,   0.0,  5.5,  245,+14.7,  94.2,    0.2,  +14.5,  +15.2,  +14.7,+1100.00,42
06/09/2011,00:48:51,   0.0,  6.8,  222,+14.7,  94.2,    0.1,  +14.5,  +15.2,  +14.7,+1100.00,40
06/09/2011,00:49:09,   0.0,  7.8,  235,+14.7,  94.2,    0.1,  +14.6,  +15.2,  +14.7,+1100.00,4A
06/09/2011,00:49:34,   0.0,  4.8,  234,+14.6,  94.1,    0.1,  +14.6,  +15.2,  +14.7,+1100.00,42
06/09/2011,00:49:52,   0.0,  4.5,  201,+14.7,  94.2,    0.1,  +14.6,  +15.2,  +14.7,+1100.00,3B
06/09/2011,00:50:10,   0.0,  4.5,  194,+14.7,  94.2,    0.3,  +14.6,  +15.2,  +14.7,+1100.00,3A
06/09/2011,00:50:28,   0.0,  8.6,  236,+14.7,  94.2,    0.2,  +14.6,  +15.1,  +14.8,+1100.00,44
06/09/2011,00:50:54,   0.0,  7.5,  222,+14.7,  94.1,    0.1,  +14.6,  +15.2,  +14.7,+1100.00,3A
06/09/2011,00:51:12,   0.0,  6.6,  224,+14.7,  94.1,    0.3,  +14.6,  +15.2,  +14.7,+1100.00,39
06/09/2011,00:51:30,   0.0,  5.4,  239,+14.7,  94.1,    0.1,  +14.7,  +15.1,  +14.8,+1100.00,3B
06/09/2011,00:51:48,   0.0,  8.1,  235,+14.7,  94.1,    0.3,  +14.6,  +15.2,  +14.7,+1100.00,41
06/09/2011,00:52:13,   0.0,  7.2,  198,+14.7,  94.0,    0.1,  +14.7,  +15.1,  +14.8,+1100.00,40
06/09/2011,00:52:31,   0.0,  7.6,  207,+14.7,  93.9,    0.3,  +14.6,  +15.2,  +14.7,+1100.00,44
06/09/2011,00:52:49,   0.0,  4.2,  206,+14.7,  94.0,    0.3,  +14.5,  +15.2,  +14.6,+1100.00,3B
06/09/2011,00:53:07,   0.0,  8.4,  253,+14.7,  93.9,    0.2,  +14.6,  +15.1,  +14.7,+1100.00,46
06/09/2011,00:53:33,   0.0,  8.9,  228,+14.7,  93.8,    0.2,  +14.6,  +15.2,  +14.7,+1100.00,4C
06/09/2011,00:53:51,   0.0,  7.7,  228,+14.8,  93.7,    0.2,  +14.6,  +15.2,  +14.7,+1100.00,49
06/09/2011,00:54:09,   0.0,  5.2,  225,+14.7,  93.7,    0.4,  +14.6,  +15.2,  +14.8,+1100.00,45
06/09/2011,00:54:34,   0.0,  7.3,  205,+14.8,  93.6,    0.2,  +14.6,  +15.1,  +14.8,+1100.00,41
06/09/2011,00:54:52,   0.0,  4.2,  213,+14.8,  93.6,    0.1,  +14.6,  +15.1,  +14.7,+1100.00,3A
06/09/2011,00:55:10,   0.0,  7.4,  240,+14.8,  93.6,    0.5,  +14.6,  +15.3,  +14.7,+1100.00,40
06/09/2011,00:55:28,   0.0,  4.1,  238,+14.8,  93.6,    0.1,  +14.6,  +15.2,  +14.8,+1100.00,46
06/09/2011,00:55:54,   0.0,  5.8,  208,+14.8,  93.6,    0.1,  +14.5,  +15.2,  +14.7,+1100.00,48
06/09/2011,00:56:12,   0.0,  6.1,  223,+14.8,  93.6,    0.2,  +14.6,  +15.2,  +14.7,+1100.00,3C
06/09/2011,00:56:30,   0.0,  4.7,  240,+14.8,  93.5,    0.1,  +14.5,  +15.2,  +14.8,+1100.00,3D
06/09/2011,00:56:48,   0.0,  5.7,  221,+14.8,  93.5,    0.2,  +14.6,  +15.2,  +14.8,+1100.00,48
06/09/2011,00:57:13,   0.0,  5.4,  231,+14.8,  93.5,    0.2,  +14.7,  +15.1,  +14.8,+1100.00,3F
06/09/2011,00:57:31,   0.0,  6.9,  233,+14.8,  93.5,    0.1,  +14.5,  +15.3,  +14.8,+1100.00,46
06/09/2011,00:57:49,   0.0,  5.1,  210,+14.8,  93.5,    0.3,  +14.7,  +15.1,  +14.8,+1100.00,43
06/09/2011,00:58:07,   0.0,  3.8,  242,+14.8,  93.5,    0.2,  +14.6,  +15.2,  +14.8,+1100.00,47
06/09/2011,00:58:33,   0.0,  5.1,  232,+14.8,  93.4,    0.2,  +14.6,  +15.2,  +14.8,+1100.00,3F
06/09/2011,00:58:51,   0.0,  4.6,  199,+14.8,  93.4,    0.3,  +14.6,  +15.2,  +14.8,+1100.00,50
06/09/2011,00:59:09,   0.0,  4.9,  226,+14.8,  93.4,    0.2,  +14.7,  +15.1,  +14.8,+1100.00,4D
06/09/2011,00:59:34,   0.0,  4.4,  246,+14.8,  93.4,    0.3,  +14.6,  +15.2,  +14.8,+1100.00,49
06/09/2011,00:59:52,   0.0,  6.0,  176,+14.8,  93.4,    0.3,  +14.6,  +15.2,  +14.8,+1100.00,49
06/09/2011,01:00:10,   0.0,  6.2,  226,+14.8,  93.4,    0.5,  +14.6,  +15.3,  +14.8,+1100.00,37
06/09/2011,01:00:28,   0.0,  6.8,  238,+14.8,  93.4,    0.3,  +14.7,  +15.1,  +14.8,+1100.00,46
06/09/2011,01:00:54,   0.0,  5.2,  205,+14.8,  93.4,    0.1,  +14.5,  +15.2,  +14.8,+1100.00,35
06/09/2011,01:01:12,   0.0,  8.8,  213,+14.8,  93.3,    0.3,  +14.7,  +15.1,  +14.8,+1100.00,3A
06/09/2011,01:01:30,   0.0,  6.8,  200,+14.8,  93.3,    0.2,  +14.7,  +15.1,  +14.8,+1100.00,33
06/09/2011,01:01:48,   0.0,  3.7,  231,+14.8,  93.2,    0.2,  +14.7,  +15.1,  +14.8,+1100.00,3B
06/09/2011,01:02:13,   0.0,  6.1,  226,+14.9,  93.2,    0.1,  +14.6,  +15.2,  +14.8,+1100.00,35
06/09/2011,01:02:31,   0.0,  3.3,  228,+14.8,  93.2,    0.1,  +14.6,  +15.2,  +14.8,+1100.00,35
06/09/2011,01:02:49,   0.0,  4.5,  206,+14.8,  93.2,    0.4,  +14.7,  +15.2,  +14.8,+1100.00,41
06/09/2011,01:03:07,   0.0,  4.4,  202,+14.9,  93.2,    0.3,  +14.5,  +15.2,  +14.8,+1100.00,35
06/09/2011,01:03:33,   0.0,  6.5,  235,+14.8,  93.2,    0.2,  +14.5,  +15.2,  +14.8,+1100.00,3B
06/09/2011,01:03:51,   0.0,  5.1,  218,+14.8,  93.1,    0.3,  +14.6,  +15.2,  +14.8,+1100.00,38
06/09/2011,01:04:09,   0.0,  4.2,  247,+14.8,  93.2,    0.1,  +14.6,  +15.1,  +14.8,+1100.00,3C
06/09/2011,01:04:34,   0.0,  4.3,  196,+14.8,  93.1,    0.1,  +14.5,  +15.2,  +14.8,+1100.00,3D
06/09/2011,01:04:52,   0.0,  5.9,  199,+14.9,  93.2,    0.1,  +14.6,  +15.2,  +14.8,+1100.00,4A
06/09/2011,01:05:10,   0.0,  4.2,  232,+14.9,  93.2,    0.5,  +14.6,  +15.2,  +14.8,+1100.00,35
06/09/2011,01:05:28,   0.0,  5.5,  101,+14.9,  93.2,    0.1,  +14.5,  +15.3,  +14.8,+1100.00,39
06/09/2011,01:05:54,   0.0,  7.8,  226,+14.9,  93.0,    0.3,  +14.5,  +15.2,  +14.8,+1100.00,44
06/09/2011,01:06:12,   0.0,  3.2,  223,+14.9,  93.0,    0.3,  +14.6,  +15.1,  +14.8,+1100.00,32
06/09/2011,01:06:30,   0.0,  4.9,  240,+14.9,  93.0,    0.3,  +14.6,  +15.2,  +14.8,+1100.00,3A
06/09/2011,01:06:48,   0.0,  6.8,  231,+14.9,  92.9,    0.3,  +14.6,  +15.2,  +14.8,+1100.00,4C
06/09/2011,01:07:13,   0.0,  4.2,  215,+14.9,  92.7,    0.2,  +14.6,  +15.1,  +14.8,+1100.00,3B
06/09/2011,01:07:31,   0.0,  4.1,  219,+14.9,  92.8,    0.1,  +14.6,  +15.2,  +14.8,+1100.00,3F
06/09/2011,01:07:49,   0.0,  7.9,  252,+14.9,  92.8,    0.3,  +14.5,  +15.3,  +14.7,+1100.00,51
06/09/2011,01:08:07,   0.0,  5.7,  223,+14.8,  92.8,    0.5,  +14.5,  +15.2,  +14.8,+1100.00,47
06/09/2011,01:08:33,   0.0,  9.2,  214,+14.9,  92.6,    0.1,  +14.7,  +15.1,  +14.8,+1100.00,41
06/09/2011,01:08:51,   0.0,  6.0,  202,+14.9,  92.6,    0.2,  +14.6,  +15.2,  +14.8,+1100.00,3A
06/09/2011,01:09:09,   0.0,  4.1,  243,+14.9,  92.6,    0.1,  +14.5,  +15.2,  +14.7,+1100.00,3F
06/09/2011,01:09:34,   0.0,  3.8,  218,+14.9,  92.7,    0.1,  +14.5,  +15.2,  +14.7,+1100.00,46
06/09/2011,01:09:52,   0.0,  3.5,  232,+14.9,  92.6,    0.1,  +14.6,  +15.2,  +14.8,+1100.00,40
06/09/2011,01:10:10,   0.0,  5.9,  247,+14.9,  92.6,    0.5,  +14.6,  +15.2,  +14.7,+1100.00,41
06/09/2011,01:10:28,   0.0, 10.6,  219,+14.9,  92.6,    0.2,  +14.6,  +15.2,  +14.8,+1100.00,50
06/09/2011,01:10:54,   0.0,  7.7,  212,+14.9,  92.4,    0.1,  +14.6,  +15.2,  +14.8,+1100.00,3C
06/09/2011,01:11:12,   0.0,  8.7,  222,+14.9,  92.4,    0.3,  +14.7,  +15.1,  +14.8,+1100.00,3B
06/09/2011,01:11:30,   0.0,  6.3,  214,+14.9,  92.4,    0.3,  +14.7,  +15.1,  +14.8,+1100.00,36
06/09/2011,01:11:47,   0.0,  4.9,  237,+15.0,  92.4,    0.2,  +14.6,  +15.1,  +14.8,+1100.00,3D
06/09/2011,01:12:13,   0.0, 10.0,  231,+14.9,  92.3,    0.5,  +14.6,  +15.2,  +14.8,+1100.00,40
06/09/2011,01:12:31,   0.0,  6.2,  239,+15.0,  92.3,    0.2,  +14.5,  +15.2,  +14.7,+1100.00,32
06/09/2011,01:12:49,   0.0,  6.9,  238,+15.0,  92.3,    0.3,  +14.6,  +15.2,  +14.8,+1100.00,44
06/09/2011,01:13:07,   0.0,  6.6,  217,+15.0,  92.2,    0.2,  +14.5,  +15.2,  +14.8,+1100.00,36
06/09/2011,01:13:33,   0.0,  6.4,  229,+15.0,  92.2,    0.2,  +14.5,  +15.2,  +14.7,+1100.00,35
06/09/2011,01:13:51,   0.0,  3.8,  229,+15.0,  92.2,    0.3,  +14.7,  +15.2,  +14.8,+1100.00,3A
06/09/2011,01:14:09,   0.0,  3.9,  178,+15.0,  92.2,    0.1,  +14.7,  +15.1,  +14.8,+1100.00,3F
06/09/2011,01:14:27,   0.0,  4.6,  223,+15.0,  92.2,    0.2,  +14.6,  +15.2,  +14.8,+1100.00,35
06/09/2011,01:14:53,   0.0,  5.5,  193,+15.0,  92.2,    0.2,  +14.6,  +15.2,  +14.8,+1100.00,3A
06/09/2011,01:15:11,   0.0,  6.2,  248,+15.0,  92.2,    0.4,  +14.7,  +15.2,  +14.7,+1100.00,36
06/09/2011,01:15:29,   0.0,  6.0,  205,+15.0,  92.3,    0.1,  +14.7,  +15.1,  +14.8,+1100.00,34
06/09/2011,01:15:47,   0.0,  7.2,  252,+15.0,  92.3,    0.1,  +14.5,  +15.2,  +14.8,+1100.00,38
06/09/2011,01:16:13,   0.0,  6.2,  202,+14.9,  92.1,    0.1,  +14.6,  +15.2,  +14.8,+1100.00,33
06/09/2011,01:16:31,   0.0,  6.9,  233,+15.0,  92.2,    0.3,  +14.7,  +15.2,  +14.8,+1100.00,3A
06/09/2011,01:16:49,   0.0,  6.8,  240,+15.0,  92.2,    0.1,  +14.6,  +15.2,  +14.8,+1100.00,3D
06/09/2011,01:17:07,   0.0,  9.1,  220,+15.0,  92.1,    0.2,  +14.6,  +15.2,  +14.8,+1100.00,32
06/09/2011,01:17:33,   0.0,  4.9,  199,+15.0,  92.1,    0.3,  +14.6,  +15.1,  +14.8,+1100.00,43
06/09/2011,01:17:51,   0.0,  8.3,  236,+15.1,  92.2,    0.3,  +14.6,  +15.2,  +14.8,+1100.00,3C
06/09/2011,01:18:09,   0.0,  4.4,  211,+15.0,  92.2,    0.2,  +14.6,  +15.1,  +14.8,+1100.00,33
06/09/2011,01:18:27,   0.0,  5.1,  221,+15.1,  92.2,    0.2,  +14.5,  +15.3,  +14.8,+1100.00,34
06/09/2011,01:18:53,   0.0,  9.1,  203,+15.0,  92.1,    0.2,  +14.5,  +15.3,  +14.8,+1100.00,35
06/09/2011,01:19:11,   0.0,  9.7,  226,+15.0,  91.9,    0.3,  +14.6,  +15.2,  +14.8,+1100.00,43
06/09/2011,01:19:29,   0.0, 11.3,  249,+15.0,  91.9,    0.2,  +14.7,  +15.1,  +14.8,+1100.00,55
06/09/2011,01:19:54,   0.0,  7.3,  229,+15.0,  91.8,    0.0,  +14.6,  +15.2,  +14.8,+1100.00,43
06/09/2011,01:20:12,   0.0,  6.1,  224,+15.1,  91.7,    0.3,  +14.5,  +15.3,  +14.8,+1100.00,30
06/09/2011,01:20:30,   0.0,  6.5,  226,+15.1,  91.8,    0.3,  +14.7,  +15.2,  +14.8,+1100.00,38
06/09/2011,01:20:48,   0.0,  5.2,  211,+15.0,  91.7,    0.3,  +14.6,  +15.2,  +14.8,+1100.00,34
06/09/2011,01:21:14,   0.0,  7.8,  247,+15.1,  91.7,    0.2,  +14.6,  +15.2,  +14.8,+1100.00,3F
06/09/2011,01:21:32,   0.0,  4.8,  201,+15.1,  91.6,    0.0,  +14.6,  +15.1,  +14.8,+1100.00,2E
06/09/2011,01:21:50,   0.0,  4.2,  216,+15.1,  91.6,    0.2,  +14.6,  +15.2,  +14.8,+1100.00,31
06/09/2011,01:22:08,   0.0,  3.6,  224,+15.1,  91.7,    0.2,  +14.5,  +15.2,  +14.8,+1100.00,37